User: anonymous   Login
Location: Coffee Creek Observatory
(38.8077°N, 94.7179°W)
Time: 21:14:17
(UTC-05:00)
Language:

Lacrosse 4 Rocket - Orbit

View from above orbital plane
View from above orbital plane
View from above satellite
View from above satellite

Ground track
Ground track

The orbit data is extracted from the following two-line orbital elements,

1 26474U 00047B   15188.47633364  .00001092  00000-0  10878-3 0  9992
2 26474 067.9945 006.0226 0056286 019.4686 340.8587 14.94552837809147
Epoch (UTC): 07 July 2015 11:25:55
Eccentricity: 0.0056286
inclination: 67.9945°
perigee height: 544 km
apogee height: 623 km
right ascension of ascending node: 6.0226°
argument of perigee: 19.4686°
revolutions per day: 14.94552837
mean anomaly at epoch: 340.8587°
orbit number at epoch: 80914

The dashed part of the orbit path shows where the satellite is in the earth's shadow,  

DLR